Homer, AK

10:23 AM AKST on December 07, 2016 (GMT -0900)
Homer

Weather History for PAHO - November, 2012

Change the Weather History Date:

Monday, November 5, 2012

  Actual Average Record
Temperature  
Mean Temperature 23 °F -  
Max Temperature 28 °F 39 °F 57 °F (1935)
Min Temperature 18 °F 26 °F 4 °F (1975)
Degree Days  
Heating Degree Days 42    
Moisture  
Dew Point 18 °F    
Average Humidity 75    
Maximum Humidity 88    
Minimum Humidity 54    
Precipitation  
Precipitation 0.11 in - - ()
Sea Level Pressure  
Sea Level Pressure 29.63 in    
Wind  
Wind Speed 4 mph (NE)    
Max Wind Speed 7 mph    
Max Gust Speed -    
Visibility 5 miles    
Events Snow    
Averages and records for this station are not official NWS values.
T = Trace of Precipitation, MM = Missing Value Source: NWS Daily Summary

Daily Weather History Graph

Daily Weather History Graph

Search for Another Location

Airport or City:

Trip Planner

Search our weather history database for the weather conditions in past years. The results will help you decide how hot, cold, wet, or windy it might be!

Date:

Astronomy

Nov. 05, 2012 Rise Set
Actual Time 8:38 AM AKST 4:59 PM AKST
Civil Twilight 7:52 AM AKST 5:45 PM AKST
Nautical Twilight 7:03 AM AKST 6:34 PM AKST
Astronomical Twilight 6:15 AM AKST 7:22 PM AKST
Moon 10:52 PM AKST (11/5) 2:04 PM AKST (11/5)
Length of Visible Light 9h 52m
Length of Day
8h 20m
Waning Gibbous, 61% of the Moon is Illuminated
Nov 5
Waning Gibbous
Nov 6
Last Quarter
Nov 13
New
Nov 20
First Quarter
Nov 28
Full

Hourly Weather History & Observations

Time (AKST) Temp. Windchill Dew Point Humidity Pressure Visibility Wind Dir Wind Speed Gust Speed Precip Events Conditions
12:53 AM 24.1 °F 18.2 °F 16.0 °F 71% 29.45 in 10.0 mi NE 4.6 mph - N/A   Clear
1:53 AM 26.1 °F 19.4 °F 14.0 °F 60% 29.46 in 10.0 mi NNE 5.8 mph - N/A   Clear
3:53 AM 25.0 °F - 12.9 °F 60% 29.49 in 10.0 mi Calm Calm - N/A   Clear
4:53 AM 21.0 °F 16.2 °F 14.0 °F 74% 29.50 in 10.0 mi North 3.5 mph - N/A   Clear
5:53 AM 19.9 °F 13.4 °F 12.0 °F 71% 29.52 in 10.0 mi NE 4.6 mph - N/A   Clear
6:53 AM 19.9 °F 14.9 °F 12.0 °F 71% 29.53 in 10.0 mi NNE 3.5 mph - N/A   Clear
7:53 AM 19.0 °F 13.9 °F 12.0 °F 74% 29.54 in 10.0 mi North 3.5 mph - N/A   Clear
8:53 AM 18.0 °F 12.7 °F 10.9 °F 74% 29.55 in 10.0 mi North 3.5 mph - N/A   Scattered Clouds
9:53 AM 23.0 °F 18.4 °F 9.0 °F 55% 29.57 in 10.0 mi NE 3.5 mph - N/A   Scattered Clouds
10:53 AM 25.0 °F 18.1 °F 12.9 °F 60% 29.59 in 10.0 mi NE 5.8 mph - N/A   Mostly Cloudy
11:53 AM 27.0 °F 21.6 °F 15.1 °F 61% 29.61 in 10.0 mi ENE 4.6 mph - N/A   Clear
12:53 PM 28.0 °F 22.8 °F 16.0 °F 61% 29.62 in 10.0 mi NNE 4.6 mph - N/A   Mostly Cloudy
1:53 PM 28.9 °F 21.9 °F 15.1 °F 56% 29.62 in 10.0 mi ENE 6.9 mph - N/A   Overcast
2:53 PM 28.9 °F 23.9 °F 14.0 °F 54% 29.62 in 10.0 mi NE 4.6 mph - N/A   Overcast
3:53 PM 28.9 °F 21.9 °F 14.0 °F 54% 29.62 in 10.0 mi NE 6.9 mph - N/A   Overcast
4:53 PM 28.9 °F 23.9 °F 14.0 °F 54% 29.63 in 10.0 mi NE 4.6 mph - N/A   Overcast
5:43 PM 28.4 °F 21.2 °F 17.6 °F 64% 29.64 in 2.0 mi ENE 6.9 mph - 0.00 in Snow Light Snow
5:53 PM 26.1 °F 18.4 °F 19.9 °F 78% 29.65 in 2.0 mi NE 6.9 mph - 0.01 in Snow Light Snow
6:00 PM 26.6 °F 20.0 °F 19.4 °F 74% 29.64 in 1.2 mi NNE 5.8 mph - 0.00 in Snow Light Snow
6:18 PM 26.6 °F 21.2 °F 21.2 °F 80% 29.65 in 2.0 mi NE 4.6 mph - 0.00 in Snow Light Snow
6:48 PM 24.8 °F 19.1 °F 21.2 °F 86% 29.66 in 1.2 mi NNE 4.6 mph - 0.01 in Snow Light Snow
6:53 PM 25.0 °F 18.1 °F 21.0 °F 85% 29.66 in 1.0 mi NNE 5.8 mph - 0.01 in Snow Light Snow
7:20 PM 24.8 °F 19.1 °F 21.2 °F 86% 29.67 in 3.0 mi NE 4.6 mph - 0.01 in Snow Light Snow
7:43 PM 24.8 °F 19.1 °F 21.2 °F 86% 29.67 in 5.0 mi NNE 4.6 mph - 0.01 in Snow Light Snow
7:53 PM 25.0 °F 20.7 °F 21.0 °F 85% 29.68 in 4.0 mi NE 3.5 mph - 0.01 in Snow Light Snow
7:59 PM 24.8 °F 19.1 °F 21.2 °F 86% 29.67 in 2.5 mi NE 4.6 mph - 0.00 in Snow Light Snow
8:09 PM 24.8 °F 20.5 °F 21.2 °F 86% 29.67 in 1.5 mi NE 3.5 mph - 0.01 in Snow Light Snow
8:43 PM 24.8 °F 20.5 °F 21.2 °F 86% 29.68 in 2.5 mi NE 3.5 mph - 0.01 in Snow Light Snow
8:53 PM 25.0 °F 20.7 °F 21.0 °F 85% 29.69 in 1.5 mi NE 3.5 mph - 0.02 in Snow Light Snow
9:30 PM 24.8 °F 17.9 °F 19.4 °F 80% 29.69 in 0.8 mi ENE 5.8 mph - 0.01 in Snow Light Snow
9:53 PM 24.1 °F 19.7 °F 21.0 °F 88% 29.70 in 0.8 mi NNE 3.5 mph - 0.03 in Snow Light Snow
10:08 PM 24.8 °F - 21.2 °F 86% 29.69 in 1.0 mi Calm Calm - 0.02 in Snow Light Snow
10:20 PM 24.8 °F - 19.4 °F 80% 29.69 in 1.8 mi Calm Calm - 0.02 in Snow Light Snow
10:28 PM 24.8 °F - 21.2 °F 86% 29.69 in 2.5 mi Calm Calm - 0.02 in Snow Light Snow
10:41 PM 24.8 °F 20.5 °F 21.2 °F 86% 29.69 in 1.5 mi NNW 3.5 mph - 0.03 in Snow Light Snow
10:49 PM 24.8 °F - 21.2 °F 86% 29.70 in 3.0 mi Calm Calm - 0.03 in Snow Light Snow
10:53 PM 24.1 °F - 21.0 °F 88% 29.70 in 3.0 mi Calm Calm - 0.03 in Snow Light Snow
11:01 PM 24.8 °F - 21.2 °F 86% 29.70 in 4.0 mi Calm Calm - 0.00 in Snow Light Snow
11:53 PM 24.1 °F 19.7 °F 19.9 °F 84% 29.72 in 4.0 mi North 3.5 mph - 0.00 in Snow Light Snow